Location: Boca del Valle
(28.4920°N, 16.2295°W)
Time: 22:08:36
(UTC+00:00)

Daily predictions for brighter satellites

Satellite Brightness Start Highest point End
(mag) Time Altitude Azimuth Time Altitude Azimuth Time Altitude Azimuth
NOAA 12 4.1 18:48:01 10° SSE 18:53:09 63° ENE 18:58:19 10° N
Cosmos 2333 4.3 18:47:40 10° N 18:53:17 59° ENE 18:58:49 10° SSE
Cosmos 2297 Rocket 2.8 18:49:14 10° S 18:54:21 37° ESE 18:59:29 10° NE
Cosmos 2322 3.7 18:49:24 10° NNW 18:55:03 71° ENE 19:00:41 10° SSE
IRS-1C Rocket 4.3 18:50:52 10° S 18:56:06 79° WSW 19:01:22 10° NNW
DELTA 2 R/B (1) 4.3 18:52:36 10° W 18:57:57 46° NNW 19:03:20 10° NE
CZ-4 R/B 2.4 18:57:26 10° SE 19:00:38 24° ENE 19:03:53 10° NNE
ASTRO E2 2.7 18:56:49 10° WNW 19:00:47 89° SW 19:04:45 10° ESE
Cosmos 2227 Rocket 2.6 19:00:59 10° S 19:06:16 43° ESE 19:11:35 10° NE
Cosmos 2360 Rocket 3.7 19:03:37 10° NW 19:08:54 43° WSW 19:14:09 10° S
Centaur D-1A AC-31 4.0 19:04:03 10° W 19:09:19 47° S 19:40:23 10° ESE
Centaur D-1A AC-31 4.0 19:04:02 10° W 19:09:20 47° S 19:40:23 10° ESE
Centaur D-1A AC-31 4.0 19:04:03 10° W 19:09:20 47° S 19:40:23 10° ESE
Meteor 2-17 Rocket 4.4 19:03:21 10° S 19:09:26 71° E 19:15:33 10° N
SKYMED 2 3.8 19:09:50 10° N 19:14:10 75° WNW 19:18:29 10° SSW
COSMOS 2428 2.8 19:10:10 10° N 19:15:49 59° ENE 19:21:26 10° SSE
USA 234 3.3 19:10:20 10° SE 19:16:52 87° NE 19:23:26 10° NW
MDS-1 3.6 19:15:13 10° W 19:17:02 66° S 19:19:22 12° ESE
Cosmos 2219 Rocket 2.2 19:11:42 10° NNW 19:17:19 63° ENE 19:22:53 10° SSE
Atlas Centaur 2 3.0 19:15:40 10° SW 19:20:08 36° SSE 19:24:53 13° E
Shenzhou-11 Module 2.2 19:19:48 10° WSW 19:22:25 51° NNW 19:24:15 17° NE
YAOGAN 1 2.9 19:22:07 10° SE 19:26:08 40° ENE 19:30:12 10° N
FALCON 9 R/B 4.2 19:00:40 10° SW 19:27:03 52° SSE 19:33:10 16° E
Cosmos 1812 Rocket 3.5 19:23:11 10° N 19:27:39 79° E 19:32:07 10° S
USA 116 3.1 19:29:03 10° N 19:32:12 85° W 19:35:16 10° SSW
Envisat 3.9 19:27:58 10° S 19:32:54 52° W 19:37:51 10° NNW
Gblst 52 Del rocket 4.4 19:31:27 10° SW 19:37:24 76° SE 19:42:46 17° NE
CZ-2D R/B 3.6 19:37:04 10° SE 19:40:38 41° ENE 19:44:14 10° N
CSL-04 Debris 4.1 19:37:41 10° SSE 19:42:58 61° ENE 19:48:16 10° N
Cosmos 1959 Rocket 4.5 19:37:23 10° S 19:43:29 60° E 19:49:31 10° NNE
ISS -2.9 19:40:17 10° WSW 19:43:31 46° NW 19:45:24 21° NNE
Cosmos 1269 Rocket 4.2 19:41:23 10° N 19:46:27 46° ENE 19:51:30 10° SE
Cosmos-2242 3.2 19:44:13 10° N 19:48:20 45° E 19:52:25 10° SSE
Cosmos 2366 rocket 3.9 19:46:21 10° S 19:52:28 70° E 19:58:39 10° N
Cosmos 1328 3.7 19:51:12 10° S 19:55:10 69° E 19:57:50 20° NNE
Cosmos 1953 Rocket 3.6 19:52:19 10° S 19:56:46 84° W 20:01:16 10° N
CZ-4C R/B 3.0 19:51:01 10° NNW 19:58:45 68° ENE 20:07:08 10° SE
Meteor 2-10 Rocket 3.7 19:55:39 10° N 20:00:43 47° E 20:05:35 10° SSE
Cosmos 1340 Rocket 4.3 19:58:28 10° NNW 20:02:08 37° W 20:05:49 10° SSW
Cosmos 1461 3.7 19:58:36 10° NW 20:02:57 56° WSW 20:07:26 10° SSE
Cosmos 2333 Rocket 3.5 19:59:14 10° NW 20:04:34 42° WSW 20:09:50 10° S
Cosmos 2237 Rocket 2.1 20:00:57 10° N 20:06:29 58° ENE 20:11:59 10° SSE
Cosmos 1939 Rocket 2.9 20:06:06 10° S 20:09:56 73° W 20:13:50 10° NNW
CSL-04 Rocket 4.0 20:07:17 10° S 20:12:40 68° WSW 20:18:09 10° NNW
Cosmos 44 3.8 20:11:14 10° SW 20:15:50 52° WNW 20:18:04 27° N
Ariane Rocket 3.7 20:11:22 10° SSE 20:18:00 36° NNE 20:21:10 10° N
ADEOS Rocket 3.4 20:11:40 10° N 20:18:25 82° WNW 20:25:52 10° SSW
Cosmos 2082 4.2 20:20:07 10° SSW 20:25:36 58° WNW 20:29:20 21° N
SL-16 R/B 4.4 20:21:40 10° N 20:21:47 10° N 20:21:47 10° N
Cosmos 1727 Rocket 3.9 20:20:35 10° N 20:26:41 60° E 20:32:45 10° SSE
Aurora 2 Rocket 4.3 20:20:52 10° W 20:30:52 68° S 20:33:48 42° ESE
CZ-4 R/B 4.3 20:33:02 10° SW 20:35:34 16° W 20:38:08 10° NW
Cosmos 2297 Rocket 4.3 20:34:05 10° WSW 20:38:24 22° WNW 20:42:45 10° NNW
Meteor 2-12 Rocket 4.3 20:32:30 10° S 20:38:34 87° W 20:41:04 38° N
SWIFT 4.5 20:35:56 10° SW 20:37:57 18° S 20:37:57 18° S
Cosmos 1980 4.5 20:42:43 10° NNW 20:48:11 51° WSW 20:53:39 10° S
H-2A ROCKET BODY 3.3 20:49:39 10° W 20:52:22 25° W 20:52:22 25° W
Mugunghwa Rocket 4.2 20:54:11 10° WSW 21:01:08 75° S 21:01:08 75° S
Cosmos 1821 Rocket 4.2 20:55:51 10° S 21:01:20 67° SSW 21:01:20 67° SSW
Atlas Centaur 2 2.9 21:03:19 10° WSW 21:07:29 55° WSW 21:07:29 55° WSW
H-2A R/B 4.2 21:21:44 10° WSW 21:26:02 34° S 21:26:27 34° S
CZ-3C R/B 4.3 21:53:32 10° W 21:59:57 18° SW 21:59:57 18° SW
